"read_dt","SO2 (ppb)","flags","PMT voltage (V)","lamp voltage (V)","lamp intensity (Hz)","internal temp (C)","react chamber temp (C)","sample flow (l/min)","pres (mmHg)","SO2 bkg (ppb)","SO2 coefficient"
2015-02-26 00:00:00,2571E-3,5C000000,-0724,0835,11983,027.7,045.4,0.455,738.9,01.18,0.508
2015-02-26 00:01:00,2657E-3,5C000000,-0724,0836,12133,027.7,045.4,0.455,738.9,01.18,0.508
2015-02-26 00:02:00,2727E-3,5C000000,-0724,0836,12063,027.7,045.4,0.454,738.9,01.18,0.508
2015-02-26 00:03:00,2629E-3,5C000000,-0724,0837,12072,027.7,045.4,0.455,738.9,01.18,0.508
2015-02-26 00:04:00,2685E-3,5C000000,-0724,0836,12175,027.7,045.4,0.454,738.7,01.18,0.508
2015-02-26 00:05:00,2634E-3,5C000000,-0724,0836,12186,027.7,045.4,0.454,738.7,01.18,0.508
2015-02-26 00:06:00,2668E-3,5C000000,-0724,0835,11926,027.7,045.4,0.455,738.7,01.18,0.508
2015-02-26 00:07:00,2651E-3,5C000000,-0724,0835,12151,027.8,045.4,0.454,738.8,01.18,0.508
2015-02-26 00:08:00,2679E-3,5C000000,-0724,0836,12025,027.8,045.4,0.454,738.7,01.18,0.508
2015-02-26 00:09:00,2536E-3,5C000000,-0724,0835,12170,027.8,045.4,0.455,738.8,01.18,0.508
2015-02-26 00:10:00,2484E-3,5C000000,-0724,0837,12307,027.8,045.4,0.454,738.8,01.18,0.508
2015-02-26 00:11:00,2648E-3,5C000000,-0724,0836,12090,027.8,045.4,0.454,738.7,01.18,0.508
2015-02-26 00:12:00,2582E-3,5C000000,-0724,0835,11995,027.8,045.4,0.455,738.8,01.18,0.508
2015-02-26 00:13:00,2543E-3,5C000000,-0724,0836,12015,027.8,045.4,0.454,738.7,01.18,0.508
2015-02-26 00:14:00,2633E-3,5C000000,-0724,0835,12015,027.8,045.4,0.454,738.7,01.18,0.508
2015-02-26 00:15:00,2610E-3,5C000000,-0724,0836,12226,027.8,045.4,0.455,738.7,01.18,0.508
2015-02-26 00:16:00,2623E-3,5C000000,-0724,0836,12216,027.8,045.4,0.454,738.8,01.18,0.508
2015-02-26 00:17:00,2758E-3,5C000000,-0724,0836,12114,027.8,045.4,0.454,738.7,01.18,0.508
2015-02-26 00:18:00,2738E-3,5C000000,-0724,0836,11984,027.8,045.4,0.455,738.7,01.18,0.508
2015-02-26 00:19:00,2818E-3,5C000000,-0724,0837,12301,027.8,045.4,0.454,738.8,01.18,0.508
2015-02-26 00:20:00,2764E-3,5C000000,-0724,0836,12081,027.8,045.4,0.454,738.8,01.18,0.508
2015-02-26 00:21:00,2771E-3,5C000000,-0724,0836,12259,027.8,045.4,0.455,738.9,01.18,0.508
2015-02-26 00:22:00,2830E-3,5C000000,-0724,0835,12200,027.8,045.5,0.454,738.9,01.18,0.508
2015-02-26 00:23:00,2790E-3,5C000000,-0724,0836,12146,027.8,045.5,0.454,738.9,01.18,0.508
2015-02-26 00:24:00,2669E-3,5C000000,-0724,0836,12177,027.8,045.4,0.455,738.9,01.18,0.508
2015-02-26 00:25:00,2724E-3,5C000000,-0724,0836,12118,027.8,045.5,0.454,738.9,01.18,0.508
2015-02-26 00:26:00,2646E-3,5C000000,-0724,0835,12211,027.8,045.5,0.454,738.9,01.18,0.508
2015-02-26 00:27:00,2787E-3,5C000000,-0724,0835,12244,027.8,045.4,0.455,738.9,01.18,0.508
2015-02-26 00:28:00,2675E-3,5C000000,-0724,0836,12133,027.9,045.4,0.454,738.8,01.18,0.508
2015-02-26 00:29:00,2686E-3,5C000000,-0724,0836,12191,027.8,045.4,0.454,738.9,01.18,0.508
2015-02-26 00:30:00,2856E-3,5C000000,-0724,0836,12129,027.8,045.4,0.455,738.9,01.18,0.508
2015-02-26 00:31:00,2719E-3,5C000000,-0724,0835,12027,027.9,045.4,0.454,738.9,01.18,0.508
2015-02-26 00:32:00,2757E-3,5C000000,-0724,0837,12217,027.9,045.4,0.454,738.8,01.18,0.508
2015-02-26 00:33:00,2748E-3,5C000000,-0724,0836,12100,027.9,045.4,0.455,738.9,01.18,0.508
2015-02-26 00:34:00,2659E-3,5C000000,-0724,0836,12123,027.9,045.4,0.455,738.9,01.18,0.508
2015-02-26 00:35:00,2614E-3,5C000000,-0724,0836,12177,027.9,045.4,0.454,738.9,01.18,0.508
2015-02-26 00:36:00,2612E-3,5C000000,-0724,0835,12127,027.9,045.4,0.454,738.7,01.18,0.508
2015-02-26 00:37:00,2558E-3,5C000000,-0724,0836,12079,027.9,045.4,0.455,738.9,01.18,0.508
2015-02-26 00:38:00,2682E-3,5C000000,-0724,0836,12066,027.9,045.4,0.454,738.9,01.18,0.508
2015-02-26 00:39:00,2691E-3,5C000000,-0724,0835,12189,027.9,045.4,0.454,738.8,01.18,0.508
2015-02-26 00:40:00,2742E-3,5C000000,-0724,0835,12192,027.9,045.4,0.455,738.8,01.18,0.508
2015-02-26 00:41:00,2611E-3,5C000000,-0724,0836,12100,027.9,045.4,0.454,738.9,01.18,0.508
2015-02-26 00:42:00,2559E-3,5C000000,-0724,0835,11973,027.9,045.4,0.454,738.8,01.18,0.508
2015-02-26 00:43:00,2652E-3,5C000000,-0724,0835,11938,027.9,045.4,0.454,738.7,01.18,0.508
2015-02-26 00:44:00,2635E-3,5C000000,-0724,0836,11975,027.9,045.4,0.454,738.8,01.18,0.508
2015-02-26 00:45:00,2722E-3,5C000000,-0724,0835,12130,027.9,045.4,0.454,738.7,01.18,0.508
2015-02-26 00:46:00,2550E-3,5C000000,-0724,0836,12029,027.9,045.4,0.454,738.7,01.18,0.508
2015-02-26 00:47:00,2575E-3,5C000000,-0724,0835,12029,027.9,045.4,0.454,738.7,01.18,0.508
2015-02-26 00:48:00,2701E-3,5C000000,-0724,0835,12175,027.9,045.4,0.454,738.4,01.18,0.508
2015-02-26 00:49:00,2632E-3,5C000000,-0724,0836,12219,027.9,045.4,0.454,738.8,01.18,0.508
2015-02-26 00:50:00,2613E-3,5C000000,-0724,0836,12094,027.9,045.4,0.454,738.7,01.18,0.508
2015-02-26 00:51:00,2626E-3,5C000000,-0724,0835,12172,027.9,045.4,0.454,738.6,01.18,0.508
2015-02-26 00:52:00,2726E-3,5C000000,-0724,0836,12225,027.9,045.4,0.454,738.7,01.18,0.508
2015-02-26 00:53:00,2640E-3,5C000000,-0724,0836,12176,027.9,045.4,0.454,738.5,01.18,0.508
2015-02-26 00:54:00,2622E-3,5C000000,-0724,0837,12330,028.0,045.4,0.454,738.5,01.18,0.508
2015-02-26 00:55:00,2539E-3,5C000000,-0724,0835,12229,028.0,045.5,0.454,738.8,01.18,0.508
2015-02-26 00:56:00,2573E-3,5C000000,-0724,0835,12266,027.9,045.5,0.454,738.7,01.18,0.508
2015-02-26 00:57:00,2725E-3,5C000000,-0724,0836,12259,028.0,045.5,0.454,738.8,01.18,0.508
2015-02-26 00:58:00,2639E-3,5C000000,-0724,0835,12077,028.0,045.4,0.454,738.5,01.18,0.508
2015-02-26 00:59:00,2583E-3,5C000000,-0724,0836,12080,028.0,045.4,0.454,738.6,01.18,0.508
2015-02-26 01:00:00,2708E-3,5C000000,-0724,0836,12063,028.0,045.4,0.454,738.7,01.18,0.508
2015-02-26 01:01:00,2605E-3,5C000000,-0724,0836,12185,028.0,045.4,0.454,738.7,01.18,0.508
2015-02-26 01:02:00,2605E-3,5C000000,-0724,0835,12124,028.0,045.5,0.454,738.5,01.18,0.508
2015-02-26 01:03:00,2505E-3,5C000000,-0724,0835,12210,028.0,045.5,0.454,738.7,01.18,0.508
2015-02-26 01:04:00,2774E-3,5C000000,-0724,0835,11823,028.0,045.5,0.454,738.7,01.18,0.508
2015-02-26 01:05:00,2513E-3,5C000000,-0724,0836,12030,028.0,045.5,0.454,738.5,01.18,0.508
2015-02-26 01:06:00,2738E-3,5C000000,-0724,0836,12245,028.0,045.4,0.454,738.5,01.18,0.508
2015-02-26 01:07:00,2554E-3,5C000000,-0724,0836,12169,028.0,045.5,0.454,738.7,01.18,0.508
2015-02-26 01:08:00,2661E-3,5C000000,-0724,0836,12210,028.0,045.4,0.454,738.7,01.18,0.508
2015-02-26 01:09:00,2838E-3,5C000000,-0724,0836,12047,028.0,045.4,0.454,738.6,01.18,0.508
2015-02-26 01:10:00,2776E-3,5C000000,-0724,0836,12173,028.0,045.4,0.454,738.7,01.18,0.508
2015-02-26 01:11:00,2773E-3,5C000000,-0724,0837,12283,028.0,045.5,0.454,738.6,01.18,0.508
2015-02-26 01:12:00,2756E-3,5C000000,-0724,0836,12146,028.0,045.5,0.454,738.6,01.18,0.508
2015-02-26 01:13:00,2493E-3,5C000000,-0724,0836,12148,028.0,045.4,0.454,738.5,01.18,0.508
2015-02-26 01:14:00,2561E-3,5C000000,-0724,0836,12145,028.0,045.4,0.454,738.5,01.18,0.508
2015-02-26 01:15:00,2648E-3,5C000000,-0724,0837,12149,028.0,045.4,0.454,738.4,01.18,0.508
2015-02-26 01:16:00,2564E-3,5C000000,-0724,0836,11990,028.0,045.4,0.454,738.5,01.18,0.508
2015-02-26 01:17:00,2605E-3,5C000000,-0724,0836,12065,028.0,045.4,0.454,738.7,01.18,0.508
2015-02-26 01:18:00,2560E-3,5C000000,-0724,0836,12128,028.0,045.4,0.454,738.3,01.18,0.508
2015-02-26 01:19:00,2376E-3,5C000000,-0724,0836,11990,028.0,045.4,0.454,738.6,01.18,0.508
2015-02-26 01:20:00,2545E-3,5C000000,-0724,0835,12114,028.0,045.5,0.454,738.6,01.18,0.508
2015-02-26 01:21:00,2702E-3,5C000000,-0724,0836,11961,028.0,045.4,0.454,738.5,01.18,0.508
2015-02-26 01:22:00,2548E-3,5C000000,-0724,0837,12292,028.0,045.4,0.454,738.7,01.18,0.508
2015-02-26 01:23:00,2669E-3,5C000000,-0724,0836,11972,028.1,045.5,0.454,738.5,01.18,0.508
2015-02-26 01:24:00,2645E-3,5C000000,-0724,0837,12224,028.0,045.4,0.454,738.4,01.18,0.508
2015-02-26 01:25:00,2539E-3,5C000000,-0724,0836,12288,028.0,045.5,0.454,738.2,01.18,0.508
2015-02-26 01:26:00,2587E-3,5C000000,-0724,0836,12230,028.0,045.4,0.454,738.5,01.18,0.508
2015-02-26 01:27:00,2510E-3,5C000000,-0724,0836,12215,028.0,045.5,0.454,738.2,01.18,0.508
2015-02-26 01:28:00,2604E-3,5C000000,-0724,0836,12093,028.1,045.4,0.454,738.5,01.18,0.508
2015-02-26 01:29:00,2558E-3,5C000000,-0724,0837,12133,028.1,045.4,0.454,738.4,01.18,0.508
2015-02-26 01:30:00,2533E-3,5C000000,-0724,0836,12050,028.1,045.4,0.454,738.5,01.18,0.508
2015-02-26 01:31:00,2651E-3,5C000000,-0724,0836,12076,028.1,045.4,0.454,738.3,01.18,0.508
2015-02-26 01:32:00,2608E-3,5C000000,-0724,0836,12132,028.1,045.4,0.454,738.6,01.18,0.508
2015-02-26 01:33:00,2606E-3,5C000000,-0724,0836,12195,028.1,045.4,0.454,738.6,01.18,0.508
2015-02-26 01:34:00,2607E-3,5C000000,-0724,0836,12141,028.1,045.5,0.454,738.6,01.18,0.508
2015-02-26 01:35:00,2590E-3,5C000000,-0724,0836,12245,028.1,045.4,0.454,738.7,01.18,0.508
2015-02-26 01:36:00,2524E-3,5C000000,-0724,0835,12158,028.1,045.5,0.454,738.3,01.18,0.508
2015-02-26 01:37:00,2518E-3,5C000000,-0724,0836,12250,028.1,045.5,0.454,738.3,01.18,0.508
2015-02-26 01:38:00,2388E-3,5C000000,-0724,0836,12149,028.1,045.4,0.454,738.5,01.18,0.508
2015-02-26 01:39:00,2521E-3,5C000000,-0724,0836,12259,028.1,045.4,0.454,738.3,01.18,0.508
2015-02-26 01:40:00,2631E-3,5C000000,-0724,0836,11899,028.1,045.4,0.454,738.4,01.18,0.508
2015-02-26 01:41:00,2705E-3,5C000000,-0724,0836,12071,028.1,045.5,0.454,738.2,01.18,0.508
2015-02-26 01:42:00,2382E-3,5C000000,-0724,0835,11972,028.1,045.5,0.454,738.3,01.18,0.508
2015-02-26 01:43:00,2561E-3,5C000000,-0724,0836,12049,028.1,045.4,0.454,737.9,01.18,0.508
2015-02-26 01:44:00,2533E-3,5C000000,-0724,0836,12128,028.1,045.5,0.454,738.3,01.18,0.508
2015-02-26 01:45:00,2533E-3,5C000000,-0724,0837,12063,028.1,045.4,0.453,738.2,01.18,0.508
2015-02-26 01:46:00,2659E-3,5C000000,-0724,0836,12189,028.1,045.4,0.454,738.3,01.18,0.508
2015-02-26 01:47:00,2654E-3,5C000000,-0724,0836,12144,028.1,045.4,0.454,738.2,01.18,0.508
2015-02-26 01:48:00,2572E-3,5C000000,-0724,0836,12120,028.1,045.4,0.453,738.2,01.18,0.508
2015-02-26 01:49:00,2562E-3,5C000000,-0724,0835,12099,028.1,045.4,0.454,738.3,01.18,0.508
2015-02-26 01:50:00,2657E-3,5C000000,-0724,0835,12138,028.1,045.4,0.454,738.1,01.18,0.508
2015-02-26 01:51:00,2633E-3,5C000000,-0724,0836,12270,028.1,045.4,0.453,738.1,01.18,0.508
2015-02-26 01:52:00,2511E-3,5C000000,-0724,0836,12101,028.1,045.4,0.453,738.3,01.18,0.508
2015-02-26 01:53:00,2401E-3,5C000000,-0724,0836,12308,028.1,045.4,0.454,738.1,01.18,0.508
2015-02-26 01:54:00,2468E-3,5C000000,-0724,0835,12254,028.1,045.4,0.453,738.0,01.18,0.508
2015-02-26 01:55:00,2510E-3,5C000000,-0724,0836,12027,028.1,045.4,0.453,738.3,01.18,0.508
2015-02-26 01:56:00,2372E-3,5C000000,-0724,0836,12217,028.1,045.5,0.454,738.3,01.18,0.508
2015-02-26 01:57:00,2531E-3,5C000000,-0724,0836,12185,028.1,045.4,0.454,738.2,01.18,0.508
2015-02-26 01:58:00,2512E-3,5C000000,-0724,0836,12174,028.1,045.4,0.453,737.9,01.18,0.508
2015-02-26 01:59:00,2387E-3,5C000000,-0724,0835,12199,028.1,045.4,0.454,737.9,01.18,0.508
2015-02-26 02:00:00,2408E-3,5C000000,-0724,0836,12102,028.1,045.4,0.454,738.3,01.18,0.508
2015-02-26 02:01:00,2520E-3,5C000000,-0724,0836,12219,028.1,045.4,0.453,738.4,01.18,0.508
2015-02-26 02:02:00,2708E-3,5C000000,-0724,0836,11956,028.1,045.4,0.454,738.3,01.18,0.508
2015-02-26 02:03:00,2430E-3,5C000000,-0724,0835,12299,028.1,045.4,0.454,738.3,01.18,0.508
2015-02-26 02:04:00,2416E-3,5C000000,-0724,0836,12113,028.1,045.4,0.453,738.1,01.18,0.508
2015-02-26 02:05:00,2492E-3,5C000000,-0724,0836,12048,028.1,045.4,0.453,737.5,01.18,0.508
2015-02-26 02:06:00,2510E-3,5C000000,-0724,0836,12102,028.1,045.4,0.454,737.9,01.18,0.508
2015-02-26 02:07:00,2472E-3,5C000000,-0724,0836,12117,028.1,045.4,0.453,738.4,01.18,0.508
2015-02-26 02:08:00,2472E-3,5C000000,-0724,0836,12123,028.1,045.4,0.453,737.8,01.18,0.508
2015-02-26 02:09:00,2482E-3,5C000000,-0724,0836,12124,028.1,045.4,0.454,738.2,01.18,0.508
2015-02-26 02:10:00,2487E-3,5C000000,-0724,0836,12297,028.1,045.4,0.453,738.3,01.18,0.508
2015-02-26 02:11:00,2600E-3,5C000000,-0724,0835,12176,028.1,045.5,0.453,738.2,01.18,0.508
2015-02-26 02:12:00,2438E-3,5C000000,-0724,0836,12121,028.1,045.4,0.454,738.3,01.18,0.508
2015-02-26 02:13:00,2491E-3,5C000000,-0724,0836,12176,028.1,045.5,0.453,738.2,01.18,0.508
2015-02-26 02:14:00,2589E-3,5C000000,-0724,0836,12073,028.1,045.5,0.453,738.1,01.18,0.508
2015-02-26 02:15:00,2553E-3,5C000000,-0724,0836,12273,028.1,045.4,0.454,737.8,01.18,0.508
2015-02-26 02:16:00,2461E-3,5C000000,-0724,0835,12076,028.1,045.4,0.454,738.0,01.18,0.508
2015-02-26 02:17:00,2652E-3,5C000000,-0724,0836,12135,028.1,045.5,0.453,738.1,01.18,0.508
2015-02-26 02:18:00,2467E-3,5C000000,-0724,0836,12039,028.1,045.5,0.454,738.3,01.18,0.508
2015-02-26 02:19:00,2515E-3,5C000000,-0724,0836,12120,028.1,045.5,0.454,738.1,01.18,0.508
2015-02-26 02:20:00,2490E-3,5C000000,-0724,0836,12113,028.1,045.4,0.453,738.0,01.18,0.508
2015-02-26 02:21:00,2550E-3,5C000000,-0724,0837,12208,028.1,045.4,0.454,738.0,01.18,0.508
2015-02-26 02:22:00,2443E-3,5C000000,-0724,0836,12079,028.1,045.4,0.454,737.9,01.18,0.508
2015-02-26 02:23:00,2390E-3,5C000000,-0724,0836,12030,028.1,045.4,0.453,737.6,01.18,0.508
2015-02-26 02:24:00,2435E-3,5C000000,-0724,0836,12114,028.1,045.5,0.453,737.9,01.18,0.508
2015-02-26 02:25:00,2290E-3,5C000000,-0724,0836,12100,028.1,045.5,0.453,737.9,01.18,0.508
2015-02-26 02:26:00,2466E-3,5C000000,-0724,0835,12274,028.1,045.4,0.453,737.9,01.18,0.508
2015-02-26 02:27:00,2359E-3,5C000000,-0724,0835,11993,028.1,045.4,0.453,737.8,01.18,0.508
2015-02-26 02:28:00,2453E-3,5C000000,-0724,0836,12178,028.1,045.4,0.454,737.3,01.18,0.508
2015-02-26 02:29:00,2422E-3,5C000000,-0724,0837,12132,028.1,045.5,0.453,737.4,01.18,0.508
2015-02-26 02:30:00,2485E-3,5C000000,-0724,0836,12165,028.1,045.4,0.454,737.8,01.18,0.508
2015-02-26 02:31:00,2364E-3,5C000000,-0724,0836,12063,028.1,045.4,0.454,738.0,01.18,0.508
2015-02-26 02:32:00,2574E-3,5C000000,-0724,0836,12213,028.1,045.5,0.453,737.8,01.18,0.508
2015-02-26 02:33:00,2346E-3,5C000000,-0724,0836,12039,028.1,045.5,0.454,737.9,01.18,0.508
2015-02-26 02:34:00,2412E-3,5C000000,-0724,0835,12082,028.1,045.4,0.454,737.9,01.18,0.508
2015-02-26 02:35:00,2434E-3,5C000000,-0724,0836,12128,028.1,045.4,0.453,737.9,01.18,0.508
2015-02-26 02:36:00,2566E-3,5C000000,-0724,0836,12182,028.1,045.4,0.453,737.8,01.18,0.508
2015-02-26 02:37:00,2555E-3,5C000000,-0724,0835,12132,028.1,045.4,0.454,737.6,01.18,0.508
2015-02-26 02:38:00,2362E-3,5C000000,-0724,0836,12331,028.1,045.5,0.453,737.5,01.18,0.508
2015-02-26 02:39:00,2485E-3,5C000000,-0724,0836,12082,028.1,045.4,0.453,737.7,01.18,0.508
2015-02-26 02:40:00,2579E-3,5C000000,-0724,0835,12215,028.1,045.4,0.454,737.9,01.18,0.508
2015-02-26 02:41:00,2486E-3,5C000000,-0724,0835,12180,028.0,045.4,0.453,737.6,01.18,0.508
2015-02-26 02:42:00,2421E-3,5C000000,-0724,0836,12201,028.0,045.4,0.453,737.4,01.18,0.508
2015-02-26 02:43:00,2397E-3,5C000000,-0724,0835,12046,028.1,045.4,0.454,737.8,01.18,0.508
2015-02-26 02:44:00,2324E-3,5C000000,-0724,0836,12278,028.0,045.5,0.453,737.9,01.18,0.508
2015-02-26 02:45:00,2374E-3,5C000000,-0724,0836,12112,028.0,045.4,0.453,738.0,01.18,0.508
2015-02-26 02:46:00,2344E-3,5C000000,-0724,0836,12178,028.0,045.4,0.454,737.4,01.18,0.508
2015-02-26 02:47:00,2397E-3,5C000000,-0724,0836,12218,028.0,045.4,0.454,737.3,01.18,0.508
2015-02-26 02:48:00,2452E-3,5C000000,-0724,0835,12169,028.0,045.4,0.453,737.8,01.18,0.508
2015-02-26 02:49:00,2412E-3,5C000000,-0724,0836,12196,028.0,045.4,0.454,737.7,01.18,0.508
2015-02-26 02:50:00,2512E-3,5C000000,-0724,0836,12028,028.0,045.4,0.454,737.8,01.18,0.508
2015-02-26 02:51:00,2556E-3,5C000000,-0724,0835,12037,028.0,045.4,0.453,737.4,01.18,0.508
2015-02-26 02:52:00,2280E-3,5C000000,-0724,0836,12045,028.0,045.4,0.454,737.7,01.18,0.508
2015-02-26 02:53:00,2564E-3,5C000000,-0724,0836,12030,028.0,045.4,0.454,737.6,01.18,0.508
2015-02-26 02:54:00,2523E-3,5C000000,-0724,0835,12191,028.0,045.4,0.453,737.7,01.18,0.508
2015-02-26 02:55:00,2567E-3,5C000000,-0724,0836,12154,028.0,045.4,0.454,737.9,01.18,0.508
2015-02-26 02:56:00,2375E-3,5C000000,-0724,0836,11860,028.0,045.4,0.454,738.0,01.18,0.508
2015-02-26 02:57:00,2283E-3,5C000000,-0724,0835,12075,028.0,045.4,0.453,737.8,01.18,0.508
2015-02-26 02:58:00,2365E-3,5C000000,-0724,0836,12227,027.9,045.4,0.454,737.7,01.18,0.508
2015-02-26 02:59:00,2422E-3,5C000000,-0724,0836,12195,028.0,045.4,0.454,738.0,01.18,0.508
2015-02-26 03:00:00,2173E-3,5C000000,-0724,0836,12135,028.0,045.4,0.453,737.8,01.18,0.508
2015-02-26 03:01:00,2529E-3,5C000000,-0724,0836,12161,027.9,045.4,0.454,737.9,01.18,0.508
2015-02-26 03:02:00,2404E-3,5C000000,-0724,0836,12222,027.9,045.4,0.454,737.3,01.18,0.508
2015-02-26 03:03:00,2329E-3,5C000000,-0724,0836,12112,028.0,045.4,0.454,737.8,01.18,0.508
2015-02-26 03:04:00,2415E-3,5C000000,-0724,0836,12267,028.0,045.5,0.454,737.9,01.18,0.508
2015-02-26 03:05:00,2401E-3,5C000000,-0724,0837,12187,027.9,045.4,0.454,737.7,01.18,0.508
2015-02-26 03:06:00,2415E-3,5C000000,-0724,0836,12146,027.9,045.4,0.453,737.8,01.18,0.508
2015-02-26 03:07:00,2353E-3,5C000000,-0724,0835,11911,027.9,045.5,0.454,737.9,01.18,0.508
2015-02-26 03:08:00,2351E-3,5C000000,-0724,0836,12033,027.9,045.4,0.454,737.8,01.18,0.508
2015-02-26 03:09:00,2453E-3,5C000000,-0724,0836,12171,027.9,045.4,0.453,737.9,01.18,0.508
2015-02-26 03:10:00,2328E-3,5C000000,-0724,0836,12287,027.9,045.4,0.454,737.7,01.18,0.508
2015-02-26 03:11:00,2448E-3,5C000000,-0724,0836,12154,027.9,045.4,0.454,737.9,01.18,0.508
2015-02-26 03:12:00,2451E-3,5C000000,-0724,0837,12112,027.9,045.4,0.454,737.5,01.18,0.508
2015-02-26 03:13:00,2378E-3,5C000000,-0724,0836,12025,027.9,045.4,0.454,737.3,01.18,0.508
2015-02-26 03:14:00,2325E-3,5C000000,-0724,0837,12115,027.9,045.5,0.454,737.9,01.18,0.508
2015-02-26 03:15:00,2554E-3,5C000000,-0724,0836,12112,027.9,045.4,0.454,737.9,01.18,0.508
2015-02-26 03:16:00,2307E-3,5C000000,-0724,0837,12268,027.9,045.5,0.454,738.0,01.18,0.508
2015-02-26 03:17:00,2420E-3,5C000000,-0724,0836,12167,027.9,045.5,0.454,738.1,01.18,0.508
2015-02-26 03:18:00,2520E-3,5C000000,-0724,0836,12245,027.9,045.4,0.454,738.1,01.18,0.508
2015-02-26 03:19:00,2501E-3,5C000000,-0724,0837,12014,027.9,045.4,0.454,737.9,01.18,0.508
2015-02-26 03:20:00,2428E-3,5C000000,-0724,0836,12081,027.9,045.4,0.454,738.3,01.18,0.508
2015-02-26 03:21:00,2475E-3,5C000000,-0724,0835,12061,027.9,045.4,0.454,738.3,01.18,0.508
2015-02-26 03:22:00,2395E-3,5C000000,-0724,0836,12199,027.9,045.4,0.454,738.2,01.18,0.508
2015-02-26 03:23:00,2469E-3,5C000000,-0724,0836,11938,027.9,045.4,0.454,738.1,01.18,0.508
2015-02-26 03:24:00,2541E-3,5C000000,-0724,0836,12264,027.8,045.4,0.454,738.1,01.18,0.508
2015-02-26 03:25:00,2433E-3,5C000000,-0724,0836,12236,027.8,045.4,0.454,738.2,01.18,0.508
2015-02-26 03:26:00,2489E-3,5C000000,-0724,0835,12203,027.9,045.5,0.454,738.2,01.18,0.508
2015-02-26 03:27:00,2566E-3,5C000000,-0724,0836,11907,027.9,045.4,0.454,738.3,01.18,0.508
2015-02-26 03:28:00,2566E-3,5C000000,-0724,0836,12179,027.8,045.4,0.454,738.3,01.18,0.508
2015-02-26 03:29:00,2512E-3,5C000000,-0724,0836,12079,027.9,045.4,0.454,738.5,01.18,0.508
2015-02-26 03:30:00,2386E-3,5C000000,-0724,0837,12108,027.9,045.4,0.454,738.4,01.18,0.508
2015-02-26 03:31:00,2415E-3,5C000000,-0724,0836,12219,027.8,045.4,0.454,738.4,01.18,0.508
2015-02-26 03:32:00,2563E-3,5C000000,-0724,0836,12061,027.8,045.4,0.454,738.5,01.18,0.508
2015-02-26 03:33:00,2378E-3,5C000000,-0724,0836,12113,027.8,045.4,0.454,738.5,01.18,0.508
2015-02-26 03:34:00,2549E-3,5C000000,-0724,0836,12138,027.8,045.4,0.454,738.6,01.18,0.508
2015-02-26 03:35:00,2476E-3,5C000000,-0724,0836,12026,027.8,045.4,0.454,738.6,01.18,0.508
2015-02-26 03:36:00,2551E-3,5C000000,-0724,0836,12323,027.8,045.4,0.454,738.6,01.18,0.508
2015-02-26 03:37:00,2511E-3,5C000000,-0724,0836,11973,027.8,045.4,0.455,738.6,01.18,0.508
2015-02-26 03:38:00,2502E-3,5C000000,-0724,0836,12162,027.8,045.4,0.454,738.7,01.18,0.508
2015-02-26 03:39:00,2543E-3,5C000000,-0724,0836,12181,027.8,045.4,0.454,738.7,01.18,0.508
2015-02-26 03:40:00,2423E-3,5C000000,-0724,0836,12193,027.8,045.4,0.455,738.6,01.18,0.508
2015-02-26 03:41:00,2432E-3,5C000000,-0724,0836,12106,027.8,045.4,0.454,738.6,01.18,0.508
2015-02-26 03:42:00,2506E-3,5C000000,-0724,0836,12023,027.8,045.4,0.454,738.7,01.18,0.508
2015-02-26 03:43:00,2614E-3,5C000000,-0724,0835,11948,027.8,045.4,0.455,738.6,01.18,0.508
2015-02-26 03:44:00,2366E-3,5C000000,-0724,0837,12167,027.8,045.4,0.454,738.6,01.18,0.508
2015-02-26 03:45:00,2443E-3,5C000000,-0724,0836,12158,027.8,045.4,0.454,738.6,01.18,0.508
2015-02-26 03:46:00,2512E-3,5C000000,-0724,0836,12096,027.8,045.4,0.454,738.6,01.18,0.508
2015-02-26 03:47:00,2567E-3,5C000000,-0724,0836,12229,027.8,045.4,0.454,738.6,01.18,0.508
2015-02-26 03:48:00,2472E-3,5C000000,-0724,0836,12191,027.8,045.4,0.454,738.5,01.18,0.508
2015-02-26 03:49:00,2525E-3,5C000000,-0724,0836,12186,027.8,045.4,0.454,738.6,01.18,0.508
2015-02-26 03:50:00,2371E-3,5C000000,-0724,0836,12036,027.8,045.4,0.454,738.6,01.18,0.508
2015-02-26 03:51:00,2310E-3,5C000000,-0724,0836,12100,027.8,045.4,0.454,738.4,01.18,0.508
2015-02-26 03:52:00,2459E-3,5C000000,-0724,0836,11938,027.8,045.4,0.454,738.6,01.18,0.508
2015-02-26 03:53:00,2396E-3,5C000000,-0724,0836,12065,027.8,045.4,0.454,738.5,01.18,0.508
2015-02-26 03:54:00,2447E-3,5C000000,-0724,0836,12133,027.8,045.4,0.454,738.5,01.18,0.508
2015-02-26 03:55:00,2448E-3,5C000000,-0724,0835,12034,027.9,045.4,0.454,738.5,01.18,0.508
2015-02-26 03:56:00,2444E-3,5C000000,-0724,0836,12186,027.8,045.4,0.454,738.5,01.18,0.508
2015-02-26 03:57:00,2438E-3,5C000000,-0724,0836,12022,027.8,045.4,0.454,738.5,01.18,0.508
2015-02-26 03:58:00,2444E-3,5C000000,-0724,0835,12085,027.8,045.4,0.454,738.3,01.18,0.508
2015-02-26 03:59:00,2405E-3,5C000000,-0724,0835,12015,027.8,045.4,0.454,738.4,01.18,0.508
2015-02-26 04:00:00,2441E-3,5C000000,-0724,0836,12126,027.8,045.4,0.454,738.5,01.18,0.508
2015-02-26 04:01:00,2435E-3,5C000000,-0724,0835,12044,027.8,045.4,0.454,738.6,01.18,0.508
2015-02-26 04:02:00,2511E-3,5C000000,-0724,0836,11968,027.8,045.4,0.455,738.3,01.18,0.508
2015-02-26 04:03:00,2525E-3,5C000000,-0724,0836,12232,027.8,045.4,0.454,738.2,01.18,0.508
2015-02-26 04:04:00,2390E-3,5C000000,-0724,0835,12099,027.8,045.4,0.454,738.4,01.18,0.508
2015-02-26 04:05:00,2603E-3,5C000000,-0724,0836,12109,027.8,045.4,0.455,738.5,01.18,0.508
2015-02-26 04:06:00,2487E-3,5C000000,-0724,0835,12059,027.8,045.5,0.454,738.4,01.18,0.508
2015-02-26 04:07:00,2425E-3,5C000000,-0724,0836,12118,027.8,045.4,0.454,738.5,01.18,0.508
2015-02-26 04:08:00,2454E-3,5C000000,-0724,0835,12169,027.8,045.4,0.455,738.4,01.18,0.508
2015-02-26 04:09:00,2406E-3,5C000000,-0724,0836,12152,027.8,045.4,0.454,738.5,01.18,0.508
2015-02-26 04:10:00,2439E-3,5C000000,-0724,0836,12210,027.8,045.4,0.454,738.4,01.18,0.508
2015-02-26 04:11:00,2490E-3,5C000000,-0724,0836,12185,027.8,045.4,0.454,738.3,01.18,0.508
2015-02-26 04:12:00,2486E-3,5C000000,-0724,0836,12164,027.8,045.4,0.454,738.4,01.18,0.508
2015-02-26 04:13:00,2536E-3,5C000000,-0724,0835,12230,027.8,045.4,0.454,738.4,01.18,0.508
2015-02-26 04:14:00,2450E-3,5C000000,-0724,0836,12191,027.8,045.5,0.454,738.3,01.18,0.508
2015-02-26 04:15:00,2329E-3,5C000000,-0724,0836,12130,027.8,045.5,0.454,738.4,01.18,0.508
2015-02-26 04:16:00,2451E-3,5C000000,-0724,0836,12209,027.8,045.5,0.454,738.3,01.18,0.508
2015-02-26 04:17:00,2515E-3,5C000000,-0724,0836,12142,027.8,045.4,0.454,738.3,01.18,0.508
2015-02-26 04:18:00,2272E-3,5C000000,-0724,0836,12133,027.8,045.4,0.454,738.3,01.18,0.508
2015-02-26 04:19:00,2420E-3,5C000000,-0724,0835,12102,027.8,045.4,0.454,738.5,01.18,0.508
2015-02-26 04:20:00,2482E-3,5C000000,-0724,0836,12103,027.8,045.5,0.454,738.4,01.18,0.508